Home   Weather   Lund   Past weeks

Flag for Sweden Past Weather in Lund, Sweden — Yesterday and Last 2 Weeks

Now
64 °F

Fog.


Feels Like: 64 °F
Forecast: 57 / 65 °F
Wind: 9 mph from Southwest

Location: Malmo / Sturup

Current Time: Aug 18, 2017 at 9:23:38 am

Latest Report: Aug 18, 2017 at 8:50 am


Visibility: 4 mi

Pressure: 29.89 "Hg

Humidity: 94%

Dew Point: 63 °F

Location of LundLocation

Past Weather in Lund — Graph

°F

Lund Temperature Yesterday

Maximum temperature yesterday: 70 °F (at 12:20 pm)
Minimum temperature yesterday: 46 °F (at 2:20 am)
Average temperature yesterday: 60 °F

High & Low Weather Summary for the Past Weeks

 TemperatureHumidityPressure
High72 °F (Aug 8, 12:50 pm)100% (Aug 3, 7:20 am)30.27 "Hg (Aug 3, 7:20 am)
Low43 °F (Aug 14, 5:20 am)43% (Aug 14, 4:20 pm)29.62 "Hg (Aug 3, 5:50 pm)
Average62 °F79%29.97 "Hg
* Reported Aug 3 7:20 am — Aug 18 7:50 am, Lund. Weather by CustomWeather, © 2017

Note: Actual official high and low records may vary slightly from our data, if they occured in-between our weather recording intervals... More about our weather records

Advertising

Lund Weather History for the Previous 24 Hours

Scroll right to see more
 ConditionsComfort  
Time TempWeatherWind HumidityBarometerVisibility
7:50 am
Fri, Aug 18
64 °FFog.8 mph94%29.89 "Hg5 mi
7:20 am63 °FFog.6 mph100%29.89 "Hg3 mi
6:50 am63 °FFog.5 mph94%29.89 "Hg2 mi
6:20 am63 °FFog.6 mph94%29.89 "Hg3 mi
5:50 am61 °FFog.6 mph100%29.89 "Hg2 mi
5:20 am63 °FFog.6 mph94%29.89 "Hg2 mi
4:50 am63 °FFog.3 mph94%29.89 "Hg3 mi
4:20 am63 °FFog.6 mph94%29.89 "Hg4 mi
3:50 am63 °FFog.7 mph94%29.89 "Hg5 mi
3:20 am61 °FDrizzle. Overcast.6 mph100%29.89 "Hg4 mi
2:50 am61 °FLight rain. Mostly cloudy.7 mph100%29.89 "HgN/A
2:20 am61 °FRain. Mostly cloudy.6 mph100%29.89 "Hg4 mi
1:50 am61 °FRain. Mostly cloudy.7 mph100%29.89 "Hg3 mi
1:20 am61 °FRain. Partly cloudy.6 mph100%29.89 "Hg2 mi
12:50 am61 °FRain. Partly cloudy.6 mph100%29.92 "Hg3 mi
12:20 am61 °FLight rain. Passing clouds.3 mph94%29.92 "HgN/A
11:50 pm
Thu, Aug 17
61 °FLight rain. Mostly cloudy.5 mph94%29.92 "HgN/A
11:20 pm61 °FLight rain. Partly cloudy.2 mph94%29.92 "HgN/A
10:50 pm61 °FRain. Overcast.5 mph94%29.92 "Hg6 mi
10:20 pm61 °FRain. Mostly cloudy.8 mph94%29.95 "HgN/A
9:50 pm64 °FLight rain. Passing clouds.12 mph94%29.92 "HgN/A
9:20 pm66 °FPassing clouds.13 mph83%29.92 "HgN/A
8:50 pm64 °FClear.12 mph88%29.92 "Hg10 mi
8:20 pm64 °FPartly sunny.13 mph88%29.95 "HgN/A
7:50 pm63 °FMore clouds than sun.12 mph94%29.95 "HgN/A
7:20 pm64 °FSunny.13 mph83%29.95 "Hg10 mi
6:50 pm66 °FSunny.13 mph78%29.98 "Hg10 mi
6:20 pm66 °FSunny.14 mph78%29.98 "Hg10 mi
5:50 pm66 °FSunny.14 mph83%29.98 "Hg10 mi
5:20 pm66 °FSunny.13 mph83%30.01 "Hg10 mi
4:50 pm68 °FSunny.14 mph78%30.01 "Hg10 mi
4:20 pm68 °FSunny.13 mph78%30.04 "Hg10 mi
3:50 pm66 °FSunny.13 mph83%30.04 "Hg10 mi
2:50 pm68 °FSunny.14 mph73%30.04 "Hg10 mi
2:20 pm68 °FPassing clouds.15 mph73%30.07 "HgN/A
1:50 pm70 °FSunny.14 mph64%30.07 "Hg10 mi
1:20 pm70 °FSunny.13 mph64%30.07 "Hg10 mi
12:50 pm68 °FSunny.14 mph60%30.09 "Hg10 mi
12:20 pm70 °FSunny.12 mph60%30.09 "Hg10 mi
11:50 am68 °FSunny.12 mph64%30.09 "Hg10 mi
11:20 am68 °FSunny.13 mph69%30.09 "Hg10 mi
10:50 am66 °FSunny.9 mph68%30.12 "Hg10 mi
10:20 am66 °FSunny.9 mph68%30.12 "Hg10 mi
9:50 am64 °FSunny.8 mph68%30.12 "Hg10 mi
Weather by CustomWeather, © 2017

See weather overviewHow to use our weather pages